#timestamp,LO_Frequency,Hit,StdDev 
1569877215.9,286046997.1,N
1569877235.7,286046997.4,N
1569877255.6,286046997.8,N
1569877275.4,286046997.8,N
1569877295.2,286046996.8,N
1569877315.1,286046997.1,N
1569877316.0,286046997.1,N
1569877335.8,286046997.4,N
1569877355.7,286046997.7,N
1569877375.5,286046998.0,N
1569877395.3,286046997.3,N
1569877415.2,286046997.8,N
1569877435.0,286046997.4,N
1569877435.9,286046997.4,N
1569877455.7,286046997.7,N
1569877475.6,286046995.6,N
1569877495.4,286046993.8,Y
1569877515.3,286046996.2,P
1569877535.1,286046996.3,P
1569877536.0,286046996.3,P
1569877555.8,286046995.5,Y
1569877575.7,286046998.3,P
1569877595.5,286046997.3,P
1569877615.4,286046996.3,P
1569877635.2,286046994.5,Y
1569877655.0,286046997.4,P
1569877655.9,286046997.4,P
1569877675.8,286046996.8,P
1569877695.6,286046996.7,Y
1569877715.5,286047000.5,P
1569877735.3,286047002.3,N
1569877755.1,286046999.8,N
1569877775.9,286047000.0,N
1569877795.7,286047002.3,N
1569877815.6,286046999.9,N
1569877835.4,286047000.6,N
1569877855.2,286046998.1,N
1569877875.1,286047001.9,N
1569877876.0,286047001.9,N
1569877895.8,286047001.8,N
1569877915.6,286047003.9,N
1569877935.5,286047002.4,N
1569877955.3,286047000.3,N
1569877975.2,286047000.0,N
1569877995.9,286047002.3,N
1569878015.7,286046999.9,N
1569878035.6,286047001.0,N
1569878055.4,286046998.5,N
1569878075.3,286046998.9,N
1569878095.1,286046999.4,N
1569878096.0,286046999.4,N
1569878115.8,286046997.4,N
1569878135.7,286046998.8,N
1569878155.5,286047000.5,N
1569878175.3,286047001.1,N
1569878195.2,286046999.7,N
1569878215.0,286046999.9,N
1569878215.9,286046999.9,N
1569878235.8,286047001.2,N
1569878255.6,286046998.6,N
1569878275.4,286046998.3,N
1569878295.3,286046998.4,N
1569878315.1,286047001.2,N
1569878335.9,286047000.2,N
1569878355.7,286047000.4,N
1569878375.5,286047000.5,N
1569878395.4,286046999.8,N
1569878415.2,286047002.3,N
1569878435.0,286047002.3,N
1569878435.9,286047002.3,N
1569878455.8,286047003.7,N
1569878475.6,286047002.5,N
1569878495.5,286047000.5,N
1569878515.3,286047000.5,N
1569878535.1,286047000.8,N
1569878555.9,286047000.6,N
1569878575.7,286047000.2,N
1569878595.6,286047000.5,N
1569878615.4,286047000.3,N
1569878635.2,286046999.9,N
1569878655.4,286047001.6,N
1569878675.3,286047002.4,N
1569878695.1,286047000.1,N
1569878715.9,286047002.2,N
1569878735.7,286047002.9,N
1569878755.5,286047003.9,N
1569878775.4,286047004.4,Y
1569878795.2,286047001.6,P
1569878815.1,286047002.4,P
1569878816.0,286047002.4,P
1569878835.8,286047000.1,N
1569878855.6,286047002.7,Y
1569878875.5,286047000.7,P
1569878895.3,286046998.3,P
1569878915.2,286046999.2,N
1569878935.9,286046996.9,N
1569878955.7,286046999.5,N
1569878975.6,286046998.2,N
1569878995.4,286047000.7,N
1569879015.2,286047001.0,N
1569879035.1,286046998.9,N
1569879036.0,286046998.9,N
1569879055.8,286046998.5,N
1569879075.7,286046998.8,N
1569879095.5,286047001.0,N
1569879115.3,286047000.1,N
1569879135.2,286046999.8,N
1569879155.0,286047001.8,N
1569879155.9,286047001.8,N
1569879175.8,286047004.1,N
1569879195.6,286047004.0,N
1569879215.4,286047001.8,N
1569879235.3,286047002.1,N
1569879255.1,286047002.6,N
1569879275.8,286047002.8,N
1569879295.7,286047002.6,N
1569879315.5,286047001.2,N
1569879335.4,286046999.9,N
1569879355.2,286047000.2,N
1569879375.0,286047002.7,N
1569879375.9,286047002.7,N
1569879395.8,286047000.3,N
1569879415.6,286047002.8,N
1569879435.5,286047004.1,N
1569879455.3,286047004.2,N
1569879475.1,286047003.7,N
1569879495.9,286047003.8,N
1569879515.7,286047003.7,N
1569879535.5,286047001.5,N
1569879555.4,286047001.6,N
1569879575.2,286047002.2,N
1569879595.1,286047002.3,N
1569879596.0,286047002.3,N
1569879615.8,286047000.1,N
1569879635.6,286047000.3,N
1569879655.5,286047001.6,N
1569879675.3,286047003.7,N
1569879695.1,286047003.3,N
1569879715.9,286047003.3,N
1569879735.7,286047005.5,Y
1569879755.6,286047002.2,P
1569879775.4,286047000.0,N
1569879795.2,286046998.2,N
1569879815.1,286047002.8,N
1569879816.0,286047002.8,N
1569879835.8,286046998.6,N
1569879855.7,286046998.7,N
1569879875.5,286046997.1,N
1569879895.3,286046999.2,N
1569879915.2,286046997.4,N
1569879935.0,286046997.1,N
1569879935.9,286046997.1,N
1569879955.8,286046999.6,N
1569879975.6,286046998.1,N
1569879995.4,286047001.0,N
1569880015.3,286046999.4,N
1569880035.1,286047000.8,N
1569880055.9,286046998.2,N
1569880075.5,286047001.2,N
1569880095.5,286047000.4,N
1569880115.3,286047002.6,N
1569880135.2,286047000.4,N
1569880155.0,286047000.9,N
1569880155.9,286047000.9,N
1569880175.8,286046998.1,N
1569880195.6,286047001.0,N
1569880215.4,286047001.0,N
1569880235.3,286046998.5,N
1569880255.1,286046999.0,N
1569880275.9,286047001.2,N
1569880295.7,286046998.1,N
1569880315.5,286046998.1,N
1569880335.4,286047001.2,N
1569880355.2,286046998.2,N
1569880375.0,286046998.3,N
1569880375.9,286046998.3,N
1569880395.8,286046998.2,N
1569880415.6,286046998.2,N
1569880435.5,286047000.9,N
1569880455.3,286047000.1,N
1569880475.1,286046999.7,N
1569880495.9,286047000.9,N
1569880515.7,286047000.9,N
1569880535.5,286047001.2,N
1569880555.4,286046999.6,N
1569880575.2,286046999.4,N
1569880595.1,286046999.2,N
1569880596.0,286046999.2,N
1569880615.8,286046998.7,N
1569880635.6,286046998.4,N
1569880655.5,286047001.1,N
1569880675.3,286047000.8,N
1569880695.2,286046998.7,N
1569880715.9,286046998.2,N
1569880735.7,286047000.0,N
1569880755.6,286047002.6,N
1569880775.4,286047000.6,N
1569880795.3,286047000.7,N
